When you browse on this site, cookies collect data to enhance your experience and personalize the content and advertising you see.
Visit our Privacy Policy to learn more. By continuing to use the site, you agree to this use of cookies and data.
  • In Hungary
  • List of Countries
  • For 7 days
  • Water Temperature
  • Satellite Maps
  • Weather Map
  • News
  • Weather Widgets
  • user-avatar
    Login

    Hourly Weather Krasnoyar

    Today, 20 November, Tuesday

    Time Temperature Precipitation Wind Pressure Humidity
    00:00 -4°C° 0 mm 3 mps 752 mmHg 91%
    01:00 -4°C° 0 mm 3 mps 752 mmHg 91%
    02:00 -4°C° 0 mm 3 mps 752 mmHg 91%
    03:00 -4°C° 0 mm 2 mps 752 mmHg 93%
    04:00 -4°C° 0 mm 2 mps 752 mmHg 93%
    05:00 -5°C° 0 mm 2 mps 752 mmHg 93%
    06:00 -5°C° 0 mm 2 mps 752 mmHg 93%
    07:00 -5°C° 0 mm 2 mps 751 mmHg 92%
    08:00 -5°C° 0 mm 2 mps 751 mmHg 91%
    09:00 -5°C° 0 mm 2 mps 751 mmHg 88%
    10:00 -4°C° 0 mm 2 mps 751 mmHg 85%
    11:00 -4°C° 0 mm 2 mps 751 mmHg 82%
    12:00 -4°C° 0 mm 2 mps 750 mmHg 79%
    13:00 -4°C° 0 mm 2 mps 750 mmHg 79%
    14:00 -4°C° 0 mm 2 mps 749 mmHg 79%
    15:00 -4°C° 0 mm 2 mps 749 mmHg 79%
    16:00 -5°C° 0 mm 3 mps 748 mmHg 80%
    17:00 -5°C° 0 mm 3 mps 748 mmHg 80%
    18:00 -5°C° 0 mm 3 mps 747 mmHg 81%
    19:00 -5°C° 0.1 mm 3 mps 747 mmHg 81%
    20:00 -5°C° 0.1 mm 4 mps 746 mmHg 82%
    21:00 -5°C° 0.1 mm 4 mps 745 mmHg 82%
    22:00 -5°C° 0 mm 4 mps 745 mmHg 82%
    23:00 -7°C° 0 mm 4 mps 744 mmHg 82%

    Tomorrow, 21 November, Wednesday

    Time Temperature Precipitation Wind Pressure Humidity
    00:00 -7°C° 0 mm 4 mps 743 mmHg 81%
    01:00 -7°C° 0 mm 5 mps 743 mmHg 81%
    02:00 -7°C° 0 mm 5 mps 742 mmHg 80%
    03:00 -7°C° 0 mm 5 mps 742 mmHg 79%
    04:00 -6°C° 0.1 mm 5 mps 741 mmHg 80%
    05:00 -6°C° 0.1 mm 5 mps 741 mmHg 81%
    06:00 -6°C° 0.1 mm 5 mps 740 mmHg 82%
    07:00 -6°C° 0.1 mm 5 mps 740 mmHg 83%
    08:00 -5°C° 0.1 mm 5 mps 739 mmHg 83%
    09:00 -5°C° 0.1 mm 5 mps 739 mmHg 84%
    10:00 -5°C° 0.1 mm 6 mps 739 mmHg 79%
    11:00 -4°C° 0.1 mm 6 mps 739 mmHg 75%
    12:00 -4°C° 0.1 mm 7 mps 739 mmHg 70%
    13:00 -5°C° 0 mm 6 mps 739 mmHg 68%
    14:00 -6°C° 0 mm 6 mps 740 mmHg 66%
    15:00 -6°C° 0 mm 6 mps 740 mmHg 64%
    16:00 -7°C° 0 mm 5 mps 740 mmHg 66%
    17:00 -7°C° 0 mm 5 mps 740 mmHg 69%
    18:00 -8°C° 0 mm 5 mps 741 mmHg 71%
    19:00 -8°C° 0 mm 5 mps 741 mmHg 72%
    20:00 -8°C° 0 mm 5 mps 741 mmHg 74%
    21:00 -8°C° 0 mm 5 mps 741 mmHg 76%
    22:00 -8°C° 0 mm 5 mps 740 mmHg 77%
    23:00 -10°C° 0 mm 5 mps 740 mmHg 79%

    Day after tomorrow, 22 November, Thursday

    Time Temperature Precipitation Wind Pressure Humidity
    00:00 -10°C° 0 mm 5 mps 740 mmHg 80%
    01:00 -10°C° 0 mm 5 mps 740 mmHg 82%
    02:00 -9°C° 0 mm 4 mps 740 mmHg 83%
    03:00 -9°C° 0 mm 4 mps 740 mmHg 85%
    04:00 -9°C° 0 mm 4 mps 739 mmHg 87%
    05:00 -8°C° 0 mm 3 mps 739 mmHg 89%
    06:00 -8°C° 0 mm 3 mps 739 mmHg 91%
    07:00 -7°C° 0.1 mm 3 mps 739 mmHg 90%
    08:00 -7°C° 0.1 mm 3 mps 738 mmHg 89%
    09:00 -8°C° 0.1 mm 4 mps 738 mmHg 88%
    10:00 -7°C° 0.4 mm 4 mps 737 mmHg 88%
    11:00 -7°C° 0.4 mm 5 mps 736 mmHg 87%
    12:00 -6°C° 0.4 mm 6 mps 735 mmHg 87%
    13:00 -6°C° 0.5 mm 6 mps 734 mmHg 86%
    14:00 -6°C° 0.5 mm 6 mps 733 mmHg 86%
    15:00 -7°C° 0.5 mm 7 mps 732 mmHg 85%
    16:00 -6°C° 0.2 mm 6 mps 732 mmHg 85%
    17:00 -6°C° 0.2 mm 6 mps 731 mmHg 85%
    18:00 -6°C° 0.2 mm 5 mps 731 mmHg 84%
    19:00 -6°C° 0.3 mm 5 mps 730 mmHg 87%
    20:00 -5°C° 0.3 mm 4 mps 729 mmHg 90%
    21:00 -5°C° 0.3 mm 3 mps 729 mmHg 93%
    22:00 -5°C° 1 mm 3 mps 728 mmHg 93%
    23:00 -7°C° 1 mm 4 mps 728 mmHg 93%

    23 November, Friday

    Time Temperature Precipitation Wind Pressure Humidity
    00:00 -7°C° 1 mm 4 mps 728 mmHg 93%
    01:00 -7°C° 0.8 mm 5 mps 728 mmHg 91%
    02:00 -9°C° 0.8 mm 6 mps 728 mmHg 89%
    03:00 -11°C° 0.8 mm 7 mps 729 mmHg 87%
    04:00 -11°C° 0.2 mm 7 mps 730 mmHg 85%
    05:00 -11°C° 0.2 mm 7 mps 731 mmHg 84%
    06:00 -12°C° 0.2 mm 7 mps 732 mmHg 82%
    07:00 -12°C° 0 mm 7 mps 734 mmHg 79%
    08:00 -13°C° 0 mm 7 mps 735 mmHg 77%
    09:00 -13°C° 0 mm 7 mps 737 mmHg 75%
    10:00 -13°C° 0 mm 7 mps 738 mmHg 76%
    11:00 -12°C° 0 mm 7 mps 739 mmHg 77%
    12:00 -11°C° 0 mm 6 mps 740 mmHg 78%
    13:00 -11°C° 0 mm 6 mps 741 mmHg 79%
    14:00 -11°C° 0 mm 6 mps 742 mmHg 79%
    15:00 -11°C° 0 mm 6 mps 742 mmHg 80%
    16:00 -12°C° 0 mm 5 mps 743 mmHg 82%
    17:00 -13°C° 0 mm 5 mps 743 mmHg 83%
    18:00 -12°C° 0 mm 4 mps 744 mmHg 85%
    19:00 -12°C° 0 mm 4 mps 744 mmHg 87%
    20:00 -14°C° 0 mm 4 mps 744 mmHg 89%
    21:00 -13°C° 0 mm 3 mps 745 mmHg 91%
    22:00 -13°C° 0 mm 3 mps 745 mmHg 91%
    23:00 -12°C° 0 mm 3 mps 745 mmHg 92%

    24 November, Saturday

    Time Temperature Precipitation Wind Pressure Humidity
    00:00 -12°C° 0 mm 3 mps 745 mmHg 92%
    01:00 -11°C° 0 mm 4 mps 745 mmHg 91%
    02:00 -11°C° 0 mm 4 mps 745 mmHg 90%
    03:00 -10°C° 0 mm 4 mps 745 mmHg 89%
    04:00 -10°C° 0 mm 4 mps 744 mmHg 89%
    05:00 -11°C° 0 mm 4 mps 744 mmHg 89%
    06:00 -11°C° 0 mm 4 mps 744 mmHg 90%
    07:00 -11°C° 0 mm 5 mps 743 mmHg 89%
    08:00 -11°C° 0 mm 5 mps 743 mmHg 88%
    09:00 -10°C° 0 mm 5 mps 743 mmHg 87%
    10:00 -10°C° 0 mm 6 mps 742 mmHg 86%
    11:00 -9°C° 0 mm 6 mps 742 mmHg 86%
    12:00 -9°C° 0 mm 6 mps 742 mmHg 85%
    13:00 -9°C° 0.1 mm 6 mps 741 mmHg 84%
    14:00 -9°C° 0.1 mm 6 mps 741 mmHg 84%
    15:00 -9°C° 0.1 mm 6 mps 741 mmHg 84%
    16:00 -8°C° 0 mm 6 mps 741 mmHg 84%
    17:00 -8°C° 0 mm 6 mps 740 mmHg 85%
    18:00 -8°C° 0 mm 6 mps 740 mmHg 85%
    19:00 -8°C° 0 mm 6 mps 740 mmHg 85%
    20:00 -8°C° 0 mm 6 mps 739 mmHg 85%
    21:00 -6°C° 0 mm 6 mps 739 mmHg 84%
    22:00 -6°C° 0.1 mm 6 mps 739 mmHg 84%
    23:00 -6°C° 0.1 mm 6 mps 739 mmHg 84%

    25 November, Sunday

    Time Temperature Precipitation Wind Pressure Humidity
    00:00 -6°C° 0.1 mm 6 mps 738 mmHg 83%
    01:00 -6°C° 0.1 mm 6 mps 738 mmHg 84%
    02:00 -6°C° 0.1 mm 6 mps 738 mmHg 84%
    03:00 -6°C° 0.1 mm 6 mps 738 mmHg 84%
    04:00 -6°C° 0 mm 6 mps 739 mmHg 85%
    05:00 -6°C° 0 mm 6 mps 739 mmHg 85%
    06:00 -6°C° 0 mm 5 mps 739 mmHg 85%
    07:00 -7°C° 0 mm 5 mps 740 mmHg 86%
    08:00 -7°C° 0 mm 5 mps 741 mmHg 87%
    09:00 -7°C° 0 mm 5 mps 741 mmHg 88%
    10:00 -5°C° 0 mm 4 mps 741 mmHg 88%
    11:00 -5°C° 0 mm 4 mps 742 mmHg 87%
    12:00 -5°C° 0 mm 4 mps 742 mmHg 87%
    13:00 -5°C° 0 mm 4 mps 742 mmHg 87%
    14:00 -6°C° 0 mm 3 mps 742 mmHg 88%
    15:00 -6°C° 0 mm 3 mps 743 mmHg 89%
    16:00 -7°C° 0 mm 3 mps 743 mmHg 91%
    17:00 -7°C° 0 mm 2 mps 743 mmHg 93%
    18:00 -7°C° 0 mm 2 mps 743 mmHg 95%
    19:00 -8°C° 0 mm 2 mps 743 mmHg 95%
    20:00 -9°C° 0 mm 2 mps 743 mmHg 96%
    21:00 -9°C° 0 mm 2 mps 743 mmHg 97%
    22:00 -9°C° 0 mm 2 mps 743 mmHg 97%
    23:00 -9°C° 0 mm 2 mps 743 mmHg 97%
    Show more